Scottsbluff, NE

6:53 PM MDT on March 27, 2017 (GMT -0600)
Heilig

Weather History for KBFF - December, 2013

Change the Weather History Date:

Tuesday, December 31, 2013

  Actual Average Record
Temperature  
Mean Temperature 39 °F 26 °F  
Max Temperature 54 °F 40 °F 67 °F (1904)
Min Temperature 24 °F 12 °F -30 °F (1923)
Degree Days  
Heating Degree Days 26 39  
Month to date heating degree days 1223 1208  
Since 1 July heating degree days 2728 2772  
Cooling Degree Days 0 0  
Month to date cooling degree days 0 0  
Year to date cooling degree days 1047 724  
Moisture  
Dew Point 23 °F    
Average Humidity 52    
Maximum Humidity 74    
Minimum Humidity 29    
Precipitation  
Precipitation T in 0.02 in 0.90 in (1975)
Month to date precipitation 0.62 0.51  
Year to date precipitation 13.36 15.79  
Snow  
Snow 0.00 in 0.20 in 10.90 in (1975)
Month to date snowfall 10.8 7.1  
Since 1 July snowfall 23.7 16.0  
Snow Depth 0.00 in    
Sea Level Pressure  
Sea Level Pressure 29.96 in    
Wind  
Wind Speed 12 mph (West)    
Max Wind Speed 30 mph    
Max Gust Speed 40 mph    
Visibility 10 miles    
Events Rain    
T = Trace of Precipitation, MM = Missing Value Source: NWS Daily Summary

Daily Weather History Graph

Daily Weather History Graph

Search for Another Location

Airport or City:

Trip Planner

Search our weather history database for the weather conditions in past years. The results will help you decide how hot, cold, wet, or windy it might be!

Date:

Astronomy

Dec. 31, 2013 Rise Set
Actual Time 7:21 AM MST 4:33 PM MST
Civil Twilight 6:50 AM MST 5:04 PM MST
Nautical Twilight 6:15 AM MST 5:39 PM MST
Astronomical Twilight 5:41 AM MST 6:13 PM MST
Moon 6:16 AM MST (12/31) 4:12 PM MST (12/31)
Length of Visible Light 10h 14m
Length of Day
9h 11m
Waning Crescent, 1% of the Moon is Illuminated
Dec 31
Waning Crescent
Jan 1
New
Jan 7
First Quarter
Jan 15
Full
Jan 23
Last Quarter

Hourly Weather History & Observations

Time (MST) Temp. Windchill Dew Point Humidity Pressure Visibility Wind Dir Wind Speed Gust Speed Precip Events Conditions
12:53 AM 27.0 °F 20.5 °F 16.0 °F 63% 30.05 in 10.0 mi South 5.8 mph - N/A   Clear
1:53 AM 30.0 °F 23.2 °F 17.1 °F 59% 30.03 in 10.0 mi South 6.9 mph - N/A   Clear
2:53 AM 30.9 °F 25.2 °F 18.0 °F 59% 30.01 in 10.0 mi SSW 5.8 mph - N/A   Clear
3:53 AM 37.0 °F 31.0 °F 21.0 °F 52% 29.97 in 10.0 mi West 8.1 mph - N/A   Clear
4:53 AM 41.0 °F 36.4 °F 21.0 °F 45% 29.96 in 10.0 mi West 6.9 mph - N/A   Clear
5:53 AM 37.0 °F 33.3 °F 21.0 °F 52% 29.99 in 10.0 mi WNW 4.6 mph - N/A   Clear
6:53 AM 39.9 °F 32.1 °F 24.1 °F 53% 29.99 in 10.0 mi WNW 13.8 mph - N/A   Clear
7:53 AM 37.9 °F 31.5 °F 25.0 °F 60% 29.99 in 10.0 mi WNW 9.2 mph - N/A   Clear
8:53 AM 46.0 °F 40.6 °F 24.1 °F 42% 30.01 in 10.0 mi West 11.5 mph 21.9 mph N/A   Clear
9:53 AM 48.0 °F - 21.9 °F 36% 30.01 in 10.0 mi WNW 23.0 mph 34.5 mph N/A   Clear
10:53 AM 50.0 °F - 21.9 °F 33% 30.01 in 10.0 mi WNW 23.0 mph 31.1 mph N/A   Clear
11:53 AM 52.0 °F - 23.0 °F 32% 29.98 in 10.0 mi WNW 20.7 mph 31.1 mph N/A   Clear
12:53 PM 53.1 °F - 23.0 °F 31% 29.96 in 10.0 mi WNW 20.7 mph 28.8 mph N/A   Clear
1:53 PM 53.1 °F - 23.0 °F 31% 29.94 in 10.0 mi West 24.2 mph 33.4 mph N/A   Partly Cloudy
2:53 PM 52.0 °F - 24.1 °F 34% 29.94 in 10.0 mi West 19.6 mph 27.6 mph N/A   Clear
3:53 PM 48.9 °F - 24.1 °F 38% 29.93 in 10.0 mi West 17.3 mph 27.6 mph N/A   Clear
4:53 PM 42.1 °F 37.7 °F 24.1 °F 49% 29.92 in 10.0 mi WSW 6.9 mph - N/A   Clear
5:53 PM 43.0 °F 39.5 °F 25.0 °F 49% 29.93 in 10.0 mi West 5.8 mph - N/A   Clear
6:53 PM 43.0 °F 39.5 °F 25.0 °F 49% 29.91 in 10.0 mi WNW 5.8 mph - N/A   Mostly Cloudy
7:53 PM 45.0 °F 40.1 °F 26.1 °F 48% 29.91 in 10.0 mi West 9.2 mph - N/A   Overcast
8:53 PM 45.0 °F 39.3 °F 26.1 °F 48% 29.89 in 10.0 mi West 11.5 mph 18.4 mph N/A   Mostly Cloudy
9:53 PM 44.1 °F 40.1 °F 26.1 °F 49% 29.89 in 10.0 mi WNW 6.9 mph - N/A   Overcast
10:53 PM 42.1 °F 39.2 °F 26.1 °F 53% 29.90 in 10.0 mi West 4.6 mph - N/A   Overcast
11:53 PM 42.1 °F 35.7 °F 30.9 °F 65% 29.91 in 10.0 mi NW 11.5 mph 21.9 mph 0.00 in Rain Light Rain